{"data":{"norad_id":67344,"intl_designator":"2026-003L","name":"STARLINK-36422","alt_names":[],"object_type":"PAYLOAD","status":"ACTIVE","operator":null,"country":"US","launch_date":"2026-01-09","launch_site_code":"AFETR","launch_vehicle":null,"mission":null,"orbit_class":"UNKNOWN","rcs_meters":null,"size_class":null,"mass_kg":null,"dimensions":null,"purposes":["comms"],"wikipedia_slug":null,"has_3d_model":false,"image_url":null,"decayed_at":null,"tle_current":{"epoch":"2026-05-25T00:53:35.433024Z","epoch_age_seconds":68663,"freshness":"FRESH","line1":"1 67344U 26003L   26145.03721566  .00021798  00000+0  79905-3 0  9992","line2":"2 67344  43.0000 155.6014 0001718 263.0285  97.0371 15.27590036 20500","mean_motion":15.27590036,"eccentricity":0.0001718,"inclination_deg":43,"raan_deg":155.6014,"arg_perigee_deg":263.0285,"mean_anomaly_deg":97.0371,"bstar":0.00079905,"rev_number":2050,"period_min":94.26612939756,"perigee_km":481.84029820125,"apogee_km":484.19779141825,"semimajor_km":6861.1560448097,"source":"CELESTRAK","updated_at":"2026-05-25T13:38:21.524087Z"}}}